Home   Weather   Nome   Past weeks

Flag for USA Past Weather in Nome, Alaska, USA — Yesterday and Last 2 Weeks

Now
31 °F

Light snow. Ice fog.


Feels Like: 17 °F
Forecast: 23 / 32 °F
Wind: 25 mph from Southwest

Location: Nome Airport

Current Time: Feb 26, 2017 at 1:15:51 am

Latest Report: Feb 25, 2017 at 11:53 pm


Visibility: 6 mi

Pressure: 29.98 "Hg

Humidity: 89%

Dew Point: 28 °F

Location of NomeLocation

Past Weather in Nome — Graph

°F

Nome Temperature Yesterday

Maximum temperature yesterday: 33 °F (at 12:53 pm)
Minimum temperature yesterday: 28 °F (at 12:53 am)
Average temperature yesterday: 31 °F

High & Low Weather Summary for the Past Weeks

 TemperatureHumidityPressure
High33 °F (Feb 25, 12:53 pm)100% (Feb 23, 7:53 am)30.27 "Hg (Feb 23, 7:53 am)
Low-27 °F (Feb 19, 3:53 am)46% (Feb 14, 3:53 am)28.95 "Hg (Feb 14, 5:40 pm)
Average3 °F78%29.71 "Hg
* Reported Feb 10 11:53 pm — Feb 25 11:53 pm, Nome, Weather by CustomWeather, © 2017

Note: Actual official high and low records may vary slightly from our data, if they occured in-between our weather recording intervals... More about our weather records

Advertising

Nome Weather History for the Previous 24 Hours

Scroll right to see more
 ConditionsComfort  
Time TempWeatherWind HumidityBarometerVisibility
11:53 pm
Sat, Feb 25
31 °FLight snow. Ice fog.25 mph89%29.98 "Hg6 mi
10:53 pm31 °FMostly cloudy.23 mph89%29.97 "Hg10 mi
9:53 pm32 °FMostly cloudy.23 mph85%29.95 "Hg10 mi
8:53 pm32 °FMostly cloudy.24 mph88%29.94 "Hg10 mi
7:53 pm32 °FMostly cloudy.22 mph88%29.94 "Hg10 mi
6:53 pm32 °FOvercast.21 mph88%29.94 "Hg8 mi
5:53 pm32 °FOvercast.21 mph92%29.93 "Hg8 mi
5:17 pm32 °FMore clouds than sun.24 mph92%29.93 "Hg9 mi
4:53 pm33 °FMostly cloudy.22 mph88%29.93 "Hg10 mi
3:53 pm33 °FOvercast.23 mph92%29.93 "Hg10 mi
2:53 pm33 °FLow clouds.24 mph92%29.92 "Hg10 mi
1:53 pm33 °FLow clouds.23 mph96%29.92 "Hg10 mi
12:53 pm33 °FLow clouds.25 mph100%29.92 "Hg9 mi
12:15 pm32 °FLight snow. Ice fog.25 mph100%29.91 "Hg3 mi
12:07 pm32 °FLight snow. Ice fog.23 mph100%29.91 "Hg1 mi
11:53 am32 °FLight snow. Ice fog.24 mph100%29.91 "Hg1 mi
11:31 am32 °FLight snow. Ice fog.24 mph100%29.90 "Hg1 mi
10:53 am31 °FLight snow. Ice fog.24 mph100%29.91 "Hg1 mi
9:53 am31 °FLight snow. Ice fog.24 mph100%29.94 "Hg1 mi
8:53 am31 °FLight snow. Ice fog.26 mph100%29.97 "Hg1 mi
7:53 am30 °FLight snow. Low clouds.26 mph100%30.01 "Hg1 mi
7:34 am30 °FLight snow. Mostly cloudy.26 mph100%30.02 "Hg1 mi
6:53 am30 °FLight snow. Low clouds.26 mph100%30.05 "Hg1 mi
6:40 am30 °FLight snow. Low clouds.24 mph100%30.07 "Hg1 mi
5:53 am30 °FLight snow. Low clouds.23 mph96%30.11 "Hg1 mi
5:00 am29 °FLight snow. Low clouds.20 mph100%30.16 "Hg1 mi
4:37 am29 °FLight snow. Ice fog.18 mph100%30.17 "Hg3 mi
4:05 am29 °FLight snow. Ice fog.14 mph96%30.20 "Hg1 mi
3:17 am29 °FLight snow. Ice fog.14 mph96%30.23 "Hg1 mi
2:53 am29 °FLight snow. Ice fog.14 mph96%30.24 "Hg1 mi
2:35 am29 °FLight snow. Ice fog.13 mph96%30.24 "Hg2 mi
2:21 am28 °FLight snow. Ice fog.13 mph100%30.24 "Hg2 mi
2:05 am28 °FLight snow. Ice fog.14 mph100%30.24 "Hg2 mi
1:35 am28 °FLight snow. Ice fog.13 mph96%30.25 "Hg4 mi
Weather by CustomWeather, © 2017

See weather overviewHow to use our weather pages